Theta_e
320 320 320 319 318 317 316 316 316 316 315 315 315 315 314 314 313 312 312 311 310 309 309 308 308 308 307 307 307 308 309 309 309 309 308 308 308 308 307 307 307 305 304 302 301 301 299 296 292 288 288 290
320 319 319 318 317 317 316 316 316 315 315 315 315 315 314 313 312 312 311 311 310 309 309 309 308 308 307 308 308 308 308 308 308 307 307 306 306 306 305 306 306 305 303 302 301 301 298 295 290 288 287 289
319 318 318 318 317 316 316 316 316 315 315 315 315 315 314 313 312 312 311 311 310 309 309 308 307 307 307 308 308 308 308 307 307 306 306 305 305 305 305 305 305 304 302 301 300 299 297 294 290 287 287 290
319 318 316 317 317 316 316 316 316 315 315 315 315 315 314 313 312 311 311 310 310 310 309 308 307 307 307 307 308 307 307 307 307 306 306 305 305 305 304 304 303 302 301 300 299 298 297 293 289 288 289 289
319 318 316 315 317 316 316 316 316 315 316 315 314 314 314 313 312 312 311 310 310 310 309 308 307 307 307 307 308 307 307 307 306 306 306 305 305 304 303 303 302 301 300 300 299 297 296 293 289 289 289 288
318 319 318 316 317 316 316 316 316 315 315 315 314 314 314 313 312 312 311 310 310 310 310 308 307 307 307 306 307 307 307 307 306 306 306 305 304 303 303 302 301 300 299 299 298 297 296 292 289 289 287 286
317 318 318 318 317 317 316 315 315 315 314 314 314 314 314 313 312 312 311 311 310 310 309 309 307 306 307 307 307 307 307 306 306 306 305 305 304 303 303 301 300 299 298 299 297 296 295 292 289 288 286 285
315 316 317 317 318 317 316 315 315 314 313 314 314 314 314 313 312 312 312 311 310 309 309 309 308 306 306 307 306 306 306 306 306 306 305 304 304 303 302 301 300 298 298 297 296 295 293 290 288 287 286 286
312 314 314 315 316 317 316 316 315 314 313 314 314 314 314 313 312 312 312 312 310 309 309 309 308 307 306 307 306 306 305 305 305 305 305 304 304 303 302 301 299 298 297 297 296 294 291 289 288 287 286 287
309 311 312 314 315 316 316 315 315 314 314 314 314 314 314 313 312 312 312 312 310 309 308 309 308 307 306 306 306 306 305 305 304 304 304 304 303 303 302 301 299 297 296 295 294 292 289 288 288 287 286 286
307 308 310 312 313 314 315 315 315 315 314 314 314 314 314 313 313 312 312 312 310 309 308 308 308 307 306 305 305 305 305 304 304 304 304 303 303 302 301 300 298 296 294 293 291 290 288 288 287 287 287 286
306 307 308 310 311 313 314 314 315 315 314 314 314 314 314 313 313 312 312 311 310 309 307 307 307 307 306 304 304 304 304 304 304 304 303 303 302 301 300 299 298 295 294 292 291 289 288 287 287 286 286 286
305 306 306 307 309 310 312 313 313 314 314 314 313 313 313 313 312 312 311 311 310 309 307 307 307 306 305 304 304 304 303 303 304 303 303 303 301 299 298 297 296 294 293 293 292 290 288 287 287 286 286 286
303 304 304 305 306 308 309 311 311 312 312 313 312 312 312 312 312 311 311 311 310 309 308 307 307 306 305 304 304 303 301 301 302 302 302 302 300 298 297 296 295 294 293 292 292 290 288 287 286 286 286 286
301 302 303 304 304 306 307 308 309 310 310 311 311 311 311 311 311 311 311 310 310 309 308 307 306 306 304 304 303 302 300 300 301 300 301 301 299 297 297 296 294 293 292 291 290 289 288 287 286 286 286 285
300 300 301 302 303 304 305 306 307 308 308 309 310 310 310 310 310 310 310 309 309 309 308 307 306 305 304 303 302 301 300 299 299 299 299 299 298 297 297 296 294 293 292 290 289 288 288 287 286 286 286 285
298 299 299 300 301 302 303 304 305 305 306 307 307 308 309 309 309 309 309 309 308 308 307 307 306 305 304 303 301 300 299 298 298 298 298 298 297 296 296 295 293 292 291 290 289 288 287 287 286 286 286 285
297 298 298 299 299 300 301 302 303 304 304 305 305 306 307 307 308 308 308 308 308 307 307 306 306 304 303 302 301 300 299 298 297 297 297 297 296 295 294 294 292 291 290 290 289 288 287 287 286 286 286 285
295 296 297 298 298 298 299 300 301 302 303 303 304 304 304 305 306 306 306 307 307 307 306 306 305 304 303 302 301 299 298 297 296 296 296 295 294 294 293 292 291 290 290 289 288 288 287 287 286 286 286 285
295 295 295 296 297 298 298 298 299 300 301 302 302 303 303 304 304 304 304 305 305 305 305 305 304 304 303 302 301 299 298 297 295 295 294 293 293 292 292 291 290 290 289 289 288 288 287 287 286 286 286 285
295 295 295 294 295 297 297 298 298 298 299 299 300 301 302 302 303 303 303 303 304 304 304 304 304 303 303 301 300 299 298 296 295 294 293 292 292 292 291 290 290 289 289 289 288 288 287 287 286 286 286 285
294 294 295 294 294 295 296 297 297 297 297 298 298 299 299 300 301 301 302 302 302 302 302 303 302 302 302 301 300 299 297 296 295 293 293 292 291 291 291 290 290 289 289 289 289 288 287 287 286 286 286 286
294 294 294 294 294 294 294 295 296 296 297 297 297 297 297 298 298 299 300 301 301 301 301 301 301 301 301 301 299 298 296 295 295 293 293 292 291 290 290 290 290 289 289 289 289 288 288 287 287 286 286 286
292 293 293 294 294 294 294 294 294 294 296 296 296 296 296 296 296 297 298 299 299 300 300 300 300 300 300 300 298 297 296 295 294 293 292 292 292 291 290 290 290 289 289 289 289 288 288 287 286 286 286 286
291 291 292 293 293 293 294 294 294 293 294 295 295 295 295 295 295 295 295 296 297 298 299 299 299 299 300 299 298 297 296 295 294 294 293 292 292 291 290 290 290 289 289 289 289 288 288 287 287 286 286 286
291 291 291 291 292 293 293 293 294 293 293 293 294 293 294 294 294 295 295 295 295 296 297 297 298 298 298 299 298 296 296 295 294 294 293 292 292 291 290 290 290 289 289 289 289 288 288 287 287 286 286 286
290 290 290 290 291 292 292 292 293 293 293 293 293 292 292 293 293 293 293 294 294 294 295 295 297 297 297 297 297 296 295 295 294 294 293 292 291 291 290 290 290 289 289 289 289 289 288 288 287 287 286 286
290 289 290 290 290 291 291 292 292 293 293 294 293 293 292 292 292 292 292 292 293 293 294 294 295 296 296 296 296 296 295 294 294 293 292 291 291 291 291 290 290 289 289 289 289 289 289 289 289 288 288 287
289 289 289 289 289 290 290 291 291 292 292 293 294 293 293 292 292 292 292 292 292 292 292 293 294 294 295 295 295 295 294 293 293 293 292 292 291 291 291 291 290 289 289 289 289 290 290 290 290 290 290 288
289 289 289 289 289 289 290 290 290 291 292 292 292 292 293 292 292 292 292 292 292 291 291 292 292 293 293 294 294 294 293 292 293 292 292 292 291 291 291 291 290 289 288 288 289 290 290 291 291 291 291 288
289 289 289 289 289 289 289 290 290 290 291 291 291 291 292 292 292 292 292 292 292 291 291 291 291 291 292 292 293 293 292 291 292 292 292 291 291 291 291 291 291 290 289 288 288 289 290 291 291 291 291 289
Wind_Speed
19 20 21 21 20 20 21 22 22 22 22 22 21 21 21 21 20 20 20 19 18 18 18 17 17 16 17 16 16 16 16 16 16 15 15 15 15 14 13 12 12 11 10 7 7 8 8 8 3 3 2 2
20 20 21 21 21 21 22 23 23 23 23 23 23 22 23 23 22 22 21 21 20 19 18 18 17 17 17 17 17 17 17 17 16 16 15 15 15 14 14 12 12 11 10 9 9 10 10 9 2 3 3 1
20 22 22 22 22 22 22 23 23 24 24 24 24 24 24 24 24 24 22 22 21 20 19 19 18 18 18 17 17 17 17 17 16 16 16 16 15 15 15 13 12 11 9 10 10 9 10 8 3 4 3 1
18 21 24 23 23 23 23 23 24 24 24 25 24 23 24 24 24 25 24 22 22 21 20 20 19 19 19 18 18 18 17 17 17 17 17 16 16 16 16 15 13 11 9 12 12 10 12 9 4 3 2 4
15 18 23 25 24 24 24 23 24 24 24 25 25 23 23 26 24 22 23 23 23 23 21 21 21 20 19 19 18 19 18 18 18 17 18 17 17 16 16 14 14 13 11 13 13 11 14 10 3 4 6 6
14 15 18 22 23 24 25 24 25 25 25 25 26 24 22 24 25 23 23 24 24 23 23 22 23 23 21 20 19 19 19 19 19 18 18 18 17 17 16 13 14 16 14 14 14 13 16 11 5 9 10 6
14 14 15 19 20 21 23 24 25 26 27 25 27 27 23 24 26 25 24 24 25 24 23 23 25 25 22 21 20 20 20 19 19 19 19 19 18 18 17 16 16 16 16 16 15 15 18 12 8 11 10 6
14 14 15 16 18 20 20 22 24 26 26 26 27 27 27 27 26 25 24 24 25 24 23 23 26 27 24 22 21 21 21 20 20 20 20 19 20 19 19 21 19 16 16 16 16 17 16 12 11 12 8 5
15 14 14 15 17 18 19 20 23 25 25 26 27 27 28 28 26 25 25 23 25 25 23 23 25 28 26 23 22 23 22 22 23 22 21 21 21 21 22 23 21 17 16 16 16 16 13 11 12 11 8 6
15 15 15 16 17 18 19 20 21 23 24 26 26 27 28 27 26 27 26 24 25 26 24 23 25 27 27 24 23 24 24 23 23 24 24 24 23 24 25 24 23 20 17 16 15 14 13 12 12 11 9 8
14 15 15 16 17 18 19 20 21 22 23 25 25 27 29 28 27 27 27 25 26 27 25 24 25 27 28 26 25 25 25 24 23 24 24 24 25 26 25 26 27 22 19 17 15 13 14 14 12 12 11 11
12 13 15 16 17 17 19 20 21 22 22 23 24 27 30 30 29 28 28 27 27 28 25 24 24 26 27 27 26 25 26 25 23 23 22 22 25 25 24 25 26 23 22 20 18 15 15 16 15 14 13 12
10 11 13 14 16 18 18 20 22 22 22 24 24 27 30 31 30 29 29 28 28 27 25 24 24 25 27 27 27 25 26 25 24 24 22 21 22 23 23 24 24 24 23 23 22 19 16 17 17 16 15 13
10 10 11 12 15 16 18 20 22 23 24 25 25 25 28 31 32 29 28 28 26 24 24 25 24 24 26 27 27 27 27 27 25 25 24 23 22 23 25 24 24 23 21 22 22 20 17 17 16 15 16 15
11 11 11 11 12 14 16 18 21 23 25 26 26 26 26 29 31 28 25 24 22 22 22 23 24 24 24 26 26 27 28 27 27 26 25 25 23 24 26 23 22 21 19 19 19 18 18 17 15 15 14 15
14 12 11 11 11 12 14 15 18 22 24 26 28 27 26 27 29 27 24 22 21 21 21 22 23 23 23 24 25 26 28 28 27 26 25 25 24 22 24 21 19 21 19 18 18 19 19 17 16 15 15 14
16 15 13 12 11 12 12 14 16 19 22 24 26 28 28 27 28 27 25 23 22 21 20 21 22 22 23 23 23 25 27 28 26 25 24 24 24 22 22 21 19 20 19 18 19 19 20 18 17 17 16 16
18 16 14 13 12 11 12 13 14 16 19 21 23 27 28 27 28 27 24 22 22 21 21 21 22 23 24 24 24 24 26 27 25 25 24 24 25 23 23 22 21 21 21 20 19 19 21 20 20 19 18 18
18 17 16 14 13 12 11 12 13 14 16 18 21 24 26 27 28 26 24 24 23 22 22 22 23 22 25 26 27 26 26 26 24 24 25 25 25 24 23 23 22 22 21 21 20 20 21 22 22 22 21 20
17 17 17 16 14 13 11 10 11 12 14 16 18 21 24 26 27 26 24 25 25 25 23 23 24 22 24 28 30 30 29 27 25 25 26 25 27 26 24 23 23 22 21 21 21 20 20 21 22 21 21 21
15 15 15 16 16 15 13 11 10 10 11 13 15 18 21 23 26 26 24 25 27 27 26 24 25 24 23 27 33 33 31 30 27 27 27 25 27 28 25 24 24 22 21 21 20 20 19 20 20 20 20 21
15 14 13 13 14 15 15 13 11 10 10 10 12 14 17 19 23 25 25 26 27 28 28 26 25 25 24 26 33 33 30 32 30 27 29 26 26 28 25 24 24 22 21 21 20 19 19 19 19 18 18 19
15 15 13 12 13 13 13 14 13 13 12 10 10 11 13 15 18 20 22 25 27 28 29 28 26 26 26 26 30 31 29 31 31 27 28 27 26 27 26 24 23 22 20 20 19 18 18 18 18 17 17 17
16 16 15 14 14 13 12 13 14 15 14 12 10 10 11 13 15 16 19 22 24 27 28 29 28 26 26 25 26 28 29 29 31 29 29 29 28 26 25 23 21 21 20 18 16 16 16 16 17 17 17 17
16 17 17 16 15 15 14 13 13 14 14 13 12 12 12 12 13 14 16 18 21 24 26 28 28 27 27 26 24 26 28 28 30 31 29 28 28 27 26 23 22 23 21 17 14 12 13 14 15 16 16 17
17 17 17 18 17 17 16 14 13 13 13 15 15 14 14 13 13 13 14 16 18 20 23 24 26 28 28 28 26 25 26 27 28 30 29 27 25 25 26 23 23 26 23 17 15 12 10 11 13 16 17 19
18 19 19 19 19 18 18 16 15 15 16 18 18 17 16 15 14 13 14 15 17 18 21 23 24 25 26 27 28 25 24 26 26 26 27 28 25 22 23 22 23 28 26 19 16 12 8 8 8 11 15 18
19 21 21 20 20 19 19 18 17 16 16 18 18 16 15 16 16 15 15 15 15 17 19 21 21 22 23 25 27 27 25 24 25 25 25 28 27 22 22 21 22 27 28 23 19 12 6 6 6 7 9 13
22 23 23 22 21 20 19 18 16 15 14 14 15 15 14 15 17 17 16 16 15 16 19 20 20 20 21 22 24 26 25 23 24 25 26 27 28 27 24 21 20 23 27 27 24 17 8 7 6 7 7 9
24 24 24 24 23 21 19 18 17 16 15 14 15 17 17 17 17 17 17 16 16 15 17 20 21 21 20 20 21 23 24 23 22 24 26 27 28 29 26 22 19 20 25 27 28 26 18 12 8 5 8 8
24 24 24 24 24 23 21 20 19 18 18 18 17 17 18 18 17 17 16 16 15 14 16 18 20 21 22 22 21 21 22 23 22 22 24 26 27 29 27 25 22 20 22 23 26 29 25 19 13 9 9 7
Wind_Direction
211 208 207 205 201 200 204 206 206 207 206 206 206 206 205 204 203 203 203 203 202 202 201 199 197 196 196 196 197 198 196 194 193 194 198 199 199 200 201 192 171 169 181 192 213 215 239 264 301 1 15 47
216 213 211 209 205 202 206 208 208 208 206 206 206 206 205 204 204 203 203 204 202 201 201 200 198 196 196 196 197 197 198 196 195 196 198 200 200 203 202 189 178 182 187 188 217 232 243 259 293 332 327 58
220 218 215 214 210 206 208 210 211 210 209 208 207 207 206 206 206 203 202 203 202 201 201 201 200 197 197 196 197 197 198 198 198 199 197 201 200 200 201 193 188 183 183 196 213 225 237 255 283 316 323 247
219 220 218 216 215 211 210 213 214 213 213 212 211 209 207 208 207 203 202 204 202 202 201 201 201 198 197 197 198 197 198 198 197 199 198 200 198 198 201 199 196 186 187 204 208 211 229 250 281 305 275 258
219 223 223 217 215 215 213 215 217 217 216 215 215 213 210 209 207 202 203 206 204 203 202 202 201 198 196 197 198 198 198 198 198 199 199 198 198 199 198 194 199 203 203 206 208 210 223 241 259 236 237 255
225 226 227 219 215 217 214 215 218 218 218 216 216 217 214 209 207 207 208 207 205 203 201 201 201 197 195 197 198 198 197 198 200 199 199 199 199 199 196 191 199 207 208 208 209 210 220 232 229 230 243 250
233 228 227 220 217 217 215 215 217 219 219 218 217 217 215 211 210 212 211 208 204 201 200 200 202 197 193 197 198 198 198 198 200 201 200 199 200 199 195 193 197 202 206 208 206 210 222 227 218 232 251 255
245 238 233 226 221 218 216 214 215 218 220 220 218 217 214 213 214 212 211 209 205 200 197 199 203 200 194 196 199 199 199 199 201 202 202 201 201 199 194 194 197 198 200 202 202 210 222 221 218 232 249 249
258 252 243 238 231 224 219 214 213 214 216 220 220 219 215 214 215 213 212 209 204 199 194 195 197 198 195 196 199 199 199 200 200 201 203 202 201 198 195 197 198 194 192 194 199 210 215 209 217 230 235 227
263 261 253 246 240 235 229 220 216 214 213 216 219 220 218 216 215 214 215 210 206 201 194 190 190 192 193 195 197 198 198 200 199 200 202 202 201 198 195 194 193 189 188 191 196 205 204 203 217 225 228 224
269 263 257 253 248 245 239 231 225 219 216 215 216 219 220 219 215 214 214 210 207 202 194 190 189 189 191 192 194 195 196 199 200 199 200 200 200 197 192 193 196 195 194 194 195 200 202 205 217 221 227 230
279 270 262 258 254 251 246 241 235 229 224 220 219 219 221 220 218 217 214 210 208 203 197 194 191 188 189 191 193 194 195 196 197 197 197 195 194 192 188 192 198 200 202 205 203 201 205 215 222 224 228 233
292 283 274 265 258 254 249 246 244 240 236 231 228 225 222 220 219 219 216 213 210 203 198 198 194 190 189 190 191 191 192 194 194 195 195 192 189 188 186 190 195 200 206 212 215 210 212 222 226 226 227 229
310 296 288 278 267 259 254 251 248 246 243 240 237 232 227 223 220 219 217 214 210 203 199 199 196 193 192 190 190 190 191 193 193 193 194 193 188 189 190 191 195 199 204 212 219 217 214 220 222 223 227 229
335 315 299 290 282 270 262 257 252 249 246 244 241 237 233 228 224 220 218 217 211 207 203 200 199 198 195 192 191 191 191 192 192 192 193 193 189 190 194 193 194 197 200 207 212 214 212 213 212 214 222 226
355 342 321 304 293 281 273 267 259 253 250 248 245 243 239 234 230 224 220 219 216 213 209 205 203 200 198 196 193 193 194 194 193 193 193 195 192 191 193 192 195 198 200 203 202 208 211 208 204 206 211 217
358 355 345 328 306 292 284 276 266 259 255 252 250 247 245 242 238 230 222 221 219 217 213 210 206 202 201 200 197 197 199 197 193 192 192 193 192 190 190 190 195 196 197 200 198 204 210 206 204 206 209 216
353 352 351 346 331 312 294 282 274 266 260 256 255 250 246 245 242 234 226 224 223 220 217 213 210 206 204 203 202 200 198 195 192 192 191 190 189 190 191 191 192 192 195 199 197 199 206 207 209 211 213 219
349 347 344 343 341 333 314 293 281 273 267 262 258 252 248 246 244 239 230 227 225 224 221 217 214 209 208 209 207 203 200 196 193 194 193 189 188 189 191 192 193 194 195 198 197 195 201 206 211 214 214 218
344 344 341 338 335 333 328 313 294 281 274 268 264 258 252 248 247 245 238 233 229 227 225 221 219 214 211 212 211 209 206 200 195 196 195 191 191 190 191 193 194 196 197 198 197 194 196 201 206 208 211 215
339 337 338 338 335 330 326 322 313 299 284 274 270 265 260 254 251 249 244 241 237 233 230 226 223 219 212 210 213 212 208 204 199 198 199 194 195 196 192 194 195 195 196 197 197 194 195 197 199 201 205 212
334 332 330 332 334 331 326 322 320 314 301 285 276 269 266 263 258 255 250 246 243 240 238 234 229 224 216 209 212 211 206 207 203 199 200 196 197 200 195 195 196 194 193 195 196 195 195 195 196 198 201 207
331 329 326 326 327 328 326 323 320 316 308 297 290 278 270 268 264 261 255 249 245 243 241 239 235 230 224 214 210 206 203 207 204 199 201 199 198 199 200 200 196 192 189 190 193 192 194 194 195 197 198 201
331 328 326 324 324 321 319 319 317 314 306 301 301 296 286 275 267 263 258 252 248 245 242 240 237 234 230 220 209 204 203 203 201 200 199 201 202 196 199 202 196 190 185 183 186 190 194 195 196 199 199 200
330 328 326 323 320 316 312 308 307 306 305 304 304 304 303 293 279 270 263 256 250 245 242 240 238 235 232 226 218 213 211 208 206 207 203 202 205 198 192 194 194 189 181 177 182 187 195 200 204 203 202 203
326 323 322 318 312 308 305 302 298 293 294 299 298 300 303 299 292 281 270 262 255 249 243 239 237 235 233 231 228 225 220 217 215 214 208 200 199 198 193 193 193 186 179 181 185 180 187 204 210 208 208 210
319 318 316 313 308 305 301 298 294 286 280 283 287 292 297 297 296 291 278 264 255 253 249 243 238 234 233 232 232 232 227 221 217 213 205 198 195 193 195 200 197 190 186 184 180 178 190 199 200 207 210 212
312 313 313 312 307 304 301 296 294 289 278 271 272 281 290 293 296 295 289 276 258 248 247 246 244 237 231 230 231 233 230 222 216 211 204 201 200 195 193 198 198 196 194 187 177 178 201 196 199 218 203 199
309 309 310 311 310 306 302 299 295 293 286 274 272 278 282 285 291 291 289 291 281 258 244 242 244 242 236 229 227 229 230 226 220 216 212 208 206 202 198 195 193 196 198 197 192 189 189 185 207 229 186 171
306 306 306 308 310 307 303 299 295 291 290 289 288 287 285 285 286 282 280 286 291 279 258 246 242 241 239 234 228 225 225 226 223 221 219 214 210 208 205 198 193 194 197 202 206 206 206 203 208 218 176 159
306 303 302 303 304 302 298 293 290 287 287 289 287 286 287 287 286 281 279 278 279 281 274 260 249 242 238 236 233 228 225 225 222 221 221 217 214 212 208 205 203 197 190 197 211 214 217 218 214 209 195 187